FW7515 Weather Reports


Display with metric or nautical units.
time (UTC)temp
F
wind
direction
speed
MPH
gust
MPH
rain 1hr
in
rain 24hr
in
rain mn
in
humidity
%
barometer
mb
20260901135554 86 166 2.0 4.0 0.00 0.00 0.00 61 1017.8
20260901135032 86 126 2.0 4.0 0.00 0.00 0.00 62 1017.8
20260901134529 86 139 2.0 4.0 0.00 0.00 0.00 62 1017.8
20260901134027 85 161 2.0 4.0 0.00 0.00 0.00 63 1017.6
20260901133525 85 145 2.0 4.0 0.00 0.00 0.00 63 1017.7
20260901133022 85 132 1.0 4.0 0.00 0.00 0.00 64 1017.6
20260901132520 84 130 2.0 5.0 0.00 0.00 0.00 64 1017.5
20260901132018 84 145 2.0 4.0 0.00 0.00 0.00 65 1017.5
20260901131516 83 179 1.0 4.0 0.00 0.00 0.00 67 1017.5
20260901131055 82 234 0.0 3.0 0.00 0.00 0.00 68 1017.6
20260901130531 82 108 1.0 3.0 0.00 0.00 0.00 67 1017.5
20260901130029 83 89 1.0 3.0 0.00 0.00 0.00 66 1017.3
20260901125527 82 43 2.0 4.0 0.00 0.00 0.00 66 1017.3
20260901125024 82 92 1.0 3.0 0.00 0.00 0.00 67 1017.2
20260901124522 82 154 1.0 3.0 0.00 0.00 0.00 67 1017.1
20260901124020 81 75 0.0 2.0 0.00 0.00 0.00 68 1017.2
20260901123518 81 92 1.0 2.0 0.00 0.00 0.00 68 1017.1
20260901123057 81 184 1.0 2.0 0.00 0.00 0.00 68 1017.0
20260901122533 81 135 2.0 3.0 0.00 0.00 0.00 69 1017.0
20260901122031 81 165 1.0 3.0 0.00 0.00 0.00 68 1017.1
20260901121528 81 86 1.0 2.0 0.00 0.00 0.00 68 1017.0
20260901121026 81 43 2.0 3.0 0.00 0.00 0.00 67 1016.9
20260901120524 81 218 1.0 4.0 0.00 0.00 0.00 67 1016.7
20260901120022 81 264 1.0 2.0 0.00 0.00 0.00 67 1016.6
20260901115521 82 57 1.0 3.0 0.00 0.00 0.00 66 1016.7
20260901115019 82 207 2.0 4.0 0.00 0.00 0.00 66 1016.7
20260901114517 82 218 2.0 4.0 0.00 0.00 0.00 66 1016.5
20260901114015 82 206 1.0 6.0 0.00 0.00 0.00 66 1016.5
20260901113554 83 212 3.0 9.0 0.00 0.00 0.00 65 1016.5
20260901113052 83 209 3.0 6.0 0.00 0.00 0.00 64 1016.4
20260901112550 83 222 3.0 9.0 0.00 0.00 0.00 65 1016.5
20260901112028 83 222 3.0 6.0 0.00 0.00 0.00 65 1016.5
20260901111607 82 266 2.0 6.0 0.00 0.00 0.00 65 1016.4
20260901111025 82 276 2.0 5.0 0.00 0.00 0.00 66 1016.4
20260901110523 82 205 2.0 4.0 0.00 0.00 0.00 66 1016.4
20260901110021 82 239 1.0 4.0 0.00 0.00 0.00 66 1016.4
20260901105519 82 210 1.0 3.0 0.00 0.00 0.00 65 1016.3
20260901105017 83 217 2.0 5.0 0.00 0.00 0.00 65 1016.2
20260901104515 82 225 2.0 3.0 0.00 0.00 0.00 65 1016.3
20260901104034 82 233 1.0 5.0 0.00 0.00 0.00 65 1016.4
20260901103531 82 220 1.0 3.0 0.00 0.00 0.00 65 1016.3
20260901103030 82 216 1.0 4.0 0.00 0.00 0.00 65 1016.4
20260901102527 82 225 1.0 2.0 0.00 0.00 0.00 65 1016.2
20260901102025 82 225 1.0 3.0 0.00 0.00 0.00 65 1016.3
20260901101523 82 211 1.0 4.0 0.00 0.00 0.00 65 1016.5
20260901101022 83 209 1.0 3.0 0.00 0.00 0.00 64 1016.2
20260901100521 83 224 1.0 5.0 0.00 0.00 0.00 64 1016.2
20260901100018 83 225 1.0 3.0 0.00 0.00 0.00 64 1016.1
20260901095516 83 223 1.0 4.0 0.00 0.00 0.00 64 1016.2
20260901095034 83 222 2.0 5.0 0.00 0.00 0.00 63 1016.4
20260901094532 83 222 2.0 6.0 0.00 0.00 0.00 63 1016.4
20260901094031 83 226 1.0 4.0 0.00 0.00 0.00 63 1016.4
20260901093549 83 211 1.0 6.0 0.00 0.00 0.00 63 1016.4
20260901093027 83 205 1.0 4.0 0.00 0.00 0.00 63 1016.7
20260901092526 83 201 1.0 3.0 0.00 0.00 0.00 62 1016.6
20260901092025 83 214 1.0 5.0 0.00 0.00 0.00 62 1016.8
20260901091523 83 209 1.0 2.0 0.00 0.00 0.00 61 1016.7
20260901091042 83 203 1.0 4.0 0.00 0.00 0.00 61 1016.5
20260901090520 83 211 1.0 4.0 0.00 0.00 0.00 61 1016.4
20260901090018 83 196 2.0 4.0 0.00 0.00 0.00 60 1016.5
20260901085516 84 202 1.0 3.0 0.00 0.00 0.00 60 1016.3
20260901085034 84 204 2.0 4.0 0.00 0.00 0.00 59 1016.4
20260901084553 84 210 2.0 6.0 0.00 0.00 0.00 58 1016.2
20260901084031 84 216 2.0 6.0 0.00 0.00 0.00 58 1016.1
20260901083529 84 227 3.0 6.0 0.00 0.00 0.00 58 1016.1
20260901083027 84 209 2.0 5.0 0.00 0.00 0.00 58 1016.3
20260901082525 84 223 3.0 7.0 0.00 0.00 0.00 58 1016.4
20260901082023 84 208 2.0 5.0 0.00 0.00 0.00 58 1016.4
20260901081521 84 192 1.0 4.0 0.00 0.00 0.00 58 1016.2
20260901081021 84 196 2.0 4.0 0.00 0.00 0.00 57 1016.2
20260901080517 84 167 2.0 4.0 0.00 0.00 0.00 57 1016.2
20260901080034 84 184 1.0 4.0 0.00 0.00 0.00 57 1016.1
20260901075533 83 166 2.0 4.0 0.00 0.00 0.00 57 1016.0
20260901075030 83 177 1.0 4.0 0.00 0.00 0.00 57 1016.0
20260901074528 83 182 1.0 3.0 0.00 0.00 0.00 57 1016.2
20260901074027 83 158 1.0 2.0 0.00 0.00 0.00 57 1016.2
20260901073525 83 130 1.0 3.0 0.00 0.00 0.00 56 1016.2
20260901073023 83 145 0.0 2.0 0.00 0.00 0.00 56 1016.2
20260901072522 83 171 0.0 2.0 0.00 0.00 0.00 56 1016.2
20260901072020 83 123 1.0 2.0 0.00 0.00 0.00 55 1016.1
20260901071539 83 124 1.0 3.0 0.00 0.00 0.00 54 1016.0
20260901071037 83 140 0.0 2.0 0.00 0.00 0.00 54 1015.9
20260901070516 83 176 0.0 2.0 0.00 0.00 0.00 54 1015.9
20260901070034 83 182 0.0 2.0 0.00 0.00 0.00 54 1016.0
20260901065532 83 153 1.0 2.0 0.00 0.00 0.00 54 1015.9
20260901065030 83 134 0.0 1.0 0.00 0.00 0.00 54 1016.0
20260901064528 83 157 0.0 2.0 0.00 0.00 0.00 53 1015.9
20260901064027 83 0.0 2.0 0.00 0.00 0.00 53 1015.8
20260901063526 83 148 0.0 1.0 0.00 0.00 0.00 52 1015.7
20260901063024 83 182 0.0 2.0 0.00 0.00 0.00 52 1015.7
20260901062522 83 190 0.0 2.0 0.00 0.00 0.00 52 1015.7
20260901062021 83 176 0.0 2.0 0.00 0.00 0.00 52 1015.6
20260901061519 84 156 1.0 2.0 0.00 0.00 0.00 51 1015.7
20260901061018 84 159 1.0 2.0 0.00 0.00 0.00 50 1015.6
20260901060555 84 177 0.0 2.0 0.00 0.00 0.00 51 1015.6
20260901060033 83 175 0.0 2.0 0.00 0.00 0.00 51 1015.4
20260901055531 84 129 0.0 2.0 0.00 0.00 0.00 50 1015.4
20260901055029 84 0.0 1.0 0.00 0.00 0.00 50 1015.4
20260901054527 84 181 0.0 2.0 0.00 0.00 0.00 49 1015.2
20260901054026 84 186 1.0 2.0 0.00 0.00 0.00 50 1015.3
20260901053524 84 153 0.0 1.0 0.00 0.00 0.00 49 1015.3
20260901053022 85 173 0.0 2.0 0.00 0.00 0.00 49 1015.4
20260901052520 85 144 0.0 2.0 0.00 0.00 0.00 48 1015.1
20260901052018 85 175 0.0 2.0 0.00 0.00 0.00 47 1015.1
20260901051516 85 178 1.0 2.0 0.00 0.00 0.00 47 1015.0
20260901051034 85 174 1.0 2.0 0.00 0.00 0.00 47 1015.0
20260901050533 84 180 0.0 1.0 0.00 0.00 0.00 48 1015.2
20260901050031 85 0.0 0.0 0.00 0.00 0.00 48 1015.1
20260901045549 85 0.0 0.0 0.00 0.00 0.00 47 1015.0
20260901045027 86 0.0 1.0 0.00 0.00 0.00 46 1014.9
20260901044526 86 167 1.0 2.0 0.00 0.00 0.00 46 1014.8
20260901044023 86 182 1.0 2.0 0.00 0.00 0.00 46 1015.0
20260901043521 86 178 1.0 2.0 0.00 0.00 0.00 46 1015.0
20260901043039 86 177 0.0 2.0 0.00 0.00 0.00 46 1015.0
20260901042517 86 190 1.0 2.0 0.00 0.00 0.00 47 1014.9
20260901042015 86 188 0.0 2.0 0.00 0.00 0.00 47 1014.9
20260901041553 87 176 0.0 2.0 0.00 0.00 0.00 46 1014.9
20260901041031 87 163 0.0 1.0 0.00 0.00 0.00 46 1015.2
20260901040529 87 0.0 1.0 0.00 0.00 0.00 46 1015.1
20260901040027 87 177 0.0 2.0 0.00 0.00 0.00 45 1015.2
20260901035524 87 190 0.0 2.0 0.00 0.00 0.00 45 1015.1
20260901035023 88 176 0.0 2.0 0.00 0.00 0.00 44 1015.1
20260901034522 88 0.0 2.0 0.00 0.00 0.00 44 1015.0
20260901034020 88 180 1.0 2.0 0.00 0.00 0.00 44 1015.0
20260901033517 88 190 1.0 2.0 0.00 0.00 0.00 44 1015.0
20260901033015 88 172 1.0 2.0 0.00 0.00 0.00 43 1015.0
20260901032534 88 147 1.0 2.0 0.00 0.00 0.00 43 1015.0
20260901032032 89 139 0.0 2.0 0.00 0.00 0.00 44 1014.9
20260901031530 89 187 1.0 2.0 0.00 0.00 0.00 43 1014.8
20260901031028 89 184 0.0 2.0 0.00 0.00 0.00 43 1015.0
20260901030527 89 184 0.0 2.0 0.00 0.00 0.00 43 1015.0
20260901030025 89 177 1.0 2.0 0.00 0.00 0.00 42 1014.8
20260901025543 90 186 1.0 2.0 0.00 0.00 0.00 42 1014.8
20260901025021 90 189 0.0 3.0 0.00 0.00 0.00 42 1014.8
20260901024520 90 178 1.0 2.0 0.00 0.00 0.00 42 1014.6
20260901024018 90 179 0.0 2.0 0.00 0.00 0.00 42 1014.7
20260901023516 90 193 1.0 2.0 0.00 0.00 0.00 41 1014.6
20260901023034 90 179 0.0 2.0 0.00 0.00 0.00 41 1014.5
20260901022533 91 171 0.0 2.0 0.00 0.00 0.00 41 1014.4
20260901022031 91 178 1.0 2.0 0.00 0.00 0.00 41 1014.3
20260901021529 91 182 1.0 2.0 0.00 0.00 0.00 40 1014.3
20260901021027 91 186 1.0 2.0 0.00 0.00 0.00 40 1014.4
20260901020526 92 182 0.0 2.0 0.00 0.00 0.00 40 1014.3
20260901020024 92 116 0.0 2.0 0.00 0.00 0.00 39 1014.2
20260901015523 92 188 0.0 2.0 0.00 0.00 0.00 39 1014.1
20260901015021 92 130 1.0 3.0 0.00 0.00 0.00 38 1014.1
20260901014519 92 183 1.0 4.0 0.00 0.00 0.00 38 1014.2
20260901014018 93 164 1.0 2.0 0.00 0.00 0.00 38 1014.0
20260901013516 93 192 0.0 2.0 0.00 0.00 0.00 38 1013.9
20260901013034 93 201 1.0 2.0 0.00 0.00 0.00 37 1013.9
20260901012532 94 198 1.0 3.0 0.00 0.00 0.00 37 1013.9
20260901012030 94 180 1.0 2.0 0.00 0.00 0.00 36 1013.9
20260901011548 94 203 1.0 4.0 0.00 0.00 0.00 36 1013.8
20260901011026 95 175 1.0 3.0 0.00 0.00 0.00 36 1013.7
20260901010544 95 185 2.0 4.0 0.00 0.00 0.00 35 1013.7
20260901010022 95 165 1.0 4.0 0.00 0.00 0.00 35 1013.8
20260901005520 95 169 3.0 8.0 0.00 0.00 0.00 35 1013.8
20260901005017 96 188 2.0 4.0 0.00 0.00 0.00 35 1013.9
20260901004535 96 186 2.0 6.0 0.00 0.00 0.00 35 1013.9
20260901004033 96 155 3.0 7.0 0.00 0.00 0.00 35 1013.9
20260901003530 97 140 4.0 12.0 0.00 0.00 0.00 34 1013.8
20260901003028 97 153 3.0 8.0 0.00 0.00 0.00 34 1013.8
20260901002528 97 144 3.0 7.0 0.00 0.00 0.00 34 1013.7
20260901002023 98 120 4.0 8.0 0.00 0.00 0.00 34 1013.7
20260901001521 98 145 2.0 5.0 0.00 0.00 0.00 34 1013.7
20260901001018 98 140 3.0 5.0 0.00 0.00 0.00 34 1013.8
20260901000516 98 142 2.0 6.0 0.00 0.00 0.00 34 1013.7
20260901000035 98 160 3.0 8.0 0.00 0.00 0.00 33 1013.8
20260831235553 98 144 2.0 11.0 0.00 0.00 0.00 33 1013.8
20260831235051 98 150 3.0 9.0 0.00 0.00 0.00 34 1013.7
20260831234530 98 140 3.0 6.0 0.00 0.00 0.00 33 1013.8
20260831234028 99 189 2.0 6.0 0.00 0.00 0.00 33 1013.7
20260831233526 99 182 2.0 5.0 0.00 0.00 0.00 33 1013.6
20260831233024 99 175 2.0 6.0 0.00 0.00 0.00 33 1013.6
20260831232521 99 173 3.0 7.0 0.00 0.00 0.00 33 1013.6
20260831232018 99 150 3.0 6.0 0.00 0.00 0.00 32 1013.6
20260831231535 99 170 2.0 5.0 0.00 0.00 0.00 33 1013.6
20260831231033 100 192 2.0 5.0 0.00 0.00 0.00 32 1013.7
20260831230531 100 167 2.0 5.0 0.00 0.00 0.00 31 1013.7
20260831230049 100 148 4.0 8.0 0.00 0.00 0.00 32 1013.7
20260831225527 100 154 3.0 8.0 0.00 0.00 0.00 31 1013.8
20260831225025 100 194 3.0 6.0 0.00 0.00 0.00 31 1013.8
20260831224524 99 132 3.0 9.0 0.00 0.00 0.00 32 1013.9
20260831224022 100 128 4.0 8.0 0.00 0.00 0.00 32 1013.9
20260831223520 101 162 3.0 6.0 0.00 0.00 0.00 32 1013.9
20260831223017 101 150 4.0 12.0 0.00 0.00 0.00 31 1014.0
20260831222535 101 141 4.0 12.0 0.00 0.00 0.00 31 1014.0
20260831222033 102 190 3.0 8.0 0.00 0.00 0.00 31 1014.1
20260831221551 101 168 3.0 5.0 0.00 0.00 0.00 31 1014.1
20260831221029 101 167 3.0 8.0 0.00 0.00 0.00 32 1014.1
20260831220547 101 151 3.0 9.0 0.00 0.00 0.00 31 1014.1
20260831220024 101 162 2.0 8.0 0.00 0.00 0.00 31 1014.4
20260831215522 100 131 4.0 10.0 0.00 0.00 0.00 32 1014.4
20260831215020 100 119 4.0 11.0 0.00 0.00 0.00 33 1014.4
20260831214519 100 131 4.0 12.0 0.00 0.00 0.00 33 1014.4
20260831214016 100 113 4.0 6.0 0.00 0.00 0.00 33 1014.5
20260831213555 101 138 3.0 6.0 0.00 0.00 0.00 32 1014.5
20260831213033 101 182 3.0 7.0 0.00 0.00 0.00 32 1014.5
20260831212530 101 116 4.0 9.0 0.00 0.00 0.00 33 1014.4
20260831212029 101 154 3.0 8.0 0.00 0.00 0.00 33 1014.6
20260831211527 102 181 4.0 9.0 0.00 0.00 0.00 32 1014.7
20260831211025 101 205 4.0 9.0 0.00 0.00 0.00 33 1014.8
20260831210523 100 151 4.0 12.0 0.00 0.00 0.00 33 1014.7
20260831210021 99 112 4.0 7.0 0.00 0.00 0.00 34 1014.8
20260831205519 99 140 4.0 9.0 0.00 0.00 0.00 34 1014.8
20260831205017 99 175 3.0 7.0 0.00 0.00 0.00 34 1014.9
20260831204535 99 132 5.0 12.0 0.00 0.00 0.00 34 1015.0
20260831204033 100 131 4.0 11.0 0.00 0.00 0.00 34 1015.1
20260831203530 100 111 6.0 12.0 0.00 0.00 0.00 34 1015.2
20260831203029 100 149 4.0 10.0 0.00 0.00 0.00 34 1015.2
20260831202527 100 126 4.0 15.0 0.00 0.00 0.00 34 1015.3
20260831202044 99 133 5.0 12.0 0.00 0.00 0.00 34 1015.4
20260831201522 100 120 6.0 13.0 0.00 0.00 0.00 34 1015.4
20260831201040 100 169 4.0 7.0 0.00 0.00 0.00 34 1015.5
20260831200518 101 139 4.0 11.0 0.00 0.00 0.00 33 1015.5
20260831200015 100 181 3.0 11.0 0.00 0.00 0.00 34 1015.7
20260831195534 101 189 4.0 7.0 0.00 0.00 0.00 33 1015.6
20260831195052 101 186 4.0 11.0 0.00 0.00 0.00 32 1015.7
20260831194530 101 182 4.0 9.0 0.00 0.00 0.00 32 1015.7
20260831194028 100 168 4.0 7.0 0.00 0.00 0.00 33 1016.0
20260831193527 100 163 4.0 10.0 0.00 0.00 0.00 33 1015.9
20260831193025 100 168 4.0 13.0 0.00 0.00 0.00 34 1016.0
20260831192543 99 159 4.0 7.0 0.00 0.00 0.00 35 1016.1
20260831192041 99 139 5.0 14.0 0.00 0.00 0.00 35 1016.1
20260831191519 100 140 3.0 8.0 0.00 0.00 0.00 34 1016.1
20260831191037 101 209 3.0 8.0 0.00 0.00 0.00 32 1016.2
20260831190516 101 151 4.0 8.0 0.00 0.00 0.00 34 1016.1
20260831190035 100 158 4.0 10.0 0.00 0.00 0.00 34 1016.2
20260831185532 100 183 3.0 8.0 0.00 0.00 0.00 34 1016.2
20260831185110 101 169 3.0 9.0 0.00 0.00 0.00 33 1016.3
20260831184548 100 190 4.0 10.0 0.00 0.00 0.00 34 1016.4
20260831184026 100 203 5.0 10.0 0.00 0.00 0.00 35 1016.4
20260831183525 100 226 6.0 13.0 0.00 0.00 0.00 35 1016.4
20260831183023 100 187 3.0 8.0 0.00 0.00 0.00 35 1016.5
20260831182541 99 170 4.0 12.0 0.00 0.00 0.00 35 1016.6
20260831182019 99 126 6.0 13.0 0.00 0.00 0.00 36 1016.8
20260831181517 100 181 2.0 7.0 0.00 0.00 0.00 36 1016.9
20260831181036 100 196 3.0 8.0 0.00 0.00 0.00 36 1016.9
20260831180534 99 197 5.0 11.0 0.00 0.00 0.00 37 1017.0
20260831180052 99 209 4.0 8.0 0.00 0.00 0.00 37 1017.0
20260831175549 99 155 5.0 11.0 0.00 0.00 0.00 37 1017.3
20260831175048 100 217 3.0 6.0 0.00 0.00 0.00 37 1017.2
20260831174525 99 193 3.0 8.0 0.00 0.00 0.00 36 1017.3
20260831174023 99 201 3.0 9.0 0.00 0.00 0.00 37 1017.5
20260831173522 99 214 4.0 13.0 0.00 0.00 0.00 37 1017.4
20260831173020 99 210 3.0 11.0 0.00 0.00 0.00 37 1017.5
20260831172559 98 193 3.0 7.0 0.00 0.00 0.00 37 1017.5
20260831172037 98 188 3.0 6.0 0.00 0.00 0.00 37 1017.6
20260831171534 98 212 3.0 6.0 0.00 0.00 0.00 38 1017.6
20260831171032 97 208 3.0 6.0 0.00 0.00 0.00 38 1017.7
20260831170550 96 222 3.0 9.0 0.00 0.00 0.00 40 1017.6
20260831170028 96 223 5.0 10.0 0.00 0.00 0.00 40 1017.7
20260831165527 96 216 5.0 11.0 0.00 0.00 0.00 40 1017.5
20260831165024 95 219 4.0 11.0 0.00 0.00 0.00 40 1017.7
20260831164522 96 223 5.0 12.0 0.00 0.00 0.00 40 1017.7
20260831164021 97 231 3.0 9.0 0.00 0.00 0.00 40 1017.7
20260831163539 96 185 3.0 6.0 0.00 0.00 0.00 40 1017.6
20260831163017 95 222 5.0 11.0 0.00 0.00 0.00 41 1017.7
20260831162515 95 223 5.0 13.0 0.00 0.00 0.00 40 1017.8
20260831162034 95 219 5.0 12.0 0.00 0.00 0.00 39 1017.9
20260831161531 94 215 4.0 11.0 0.00 0.00 0.00 40 1017.9
20260831161030 94 208 4.0 10.0 0.00 0.00 0.00 41 1017.8
20260831160528 94 207 3.0 8.0 0.00 0.00 0.00 41 1017.9
20260831160026 94 220 3.0 7.0 0.00 0.00 0.00 44 1017.9
20260831155525 93 228 2.0 7.0 0.00 0.00 0.00 45 1017.8
20260831155043 92 226 4.0 9.0 0.00 0.00 0.00 46 1017.8
20260831154541 92 219 3.0 8.0 0.00 0.00 0.00 46 1017.7
20260831154019 92 214 3.0 7.0 0.00 0.00 0.00 46 1017.9
20260831153517 91 219 3.0 8.0 0.00 0.00 0.00 47 1017.8
20260831153016 91 221 5.0 11.0 0.00 0.00 0.00 47 1017.6
20260831152554 90 226 5.0 10.0 0.00 0.00 0.00 48 1017.5
20260831152033 90 218 6.0 13.0 0.00 0.00 0.00 49 1017.5
20260831151550 90 225 4.0 11.0 0.00 0.00 0.00 50 1017.6
20260831151028 89 218 6.0 11.0 0.00 0.00 0.00 50 1017.6
20260831150527 89 221 6.0 13.0 0.00 0.00 0.00 50 1017.5
20260831150025 89 227 5.0 13.0 0.00 0.00 0.00 50 1017.6
20260831145523 89 220 6.0 13.0 0.00 0.00 0.00 51 1017.5
20260831145021 90 220 3.0 8.0 0.00 0.00 0.00 52 1017.4
20260831144520 89 221 2.0 6.0 0.00 0.00 0.00 53 1017.4
20260831144018 88 217 4.0 10.0 0.00 0.00 0.00 54 1017.5
20260831143516 88 222 3.0 6.0 0.00 0.00 0.00 54 1017.5
20260831143054 87 207 3.0 6.0 0.00 0.00 0.00 55 1017.6
20260831142532 87 221 5.0 13.0 0.00 0.00 0.00 56 1017.5
20260831142030 87 224 4.0 11.0 0.00 0.00 0.00 56 1017.5
20260831141548 87 223 4.0 9.0 0.00 0.00 0.00 57 1017.6
20260831141026 86 210 4.0 10.0 0.00 0.00 0.00 58 1017.4
20260831140524 86 215 3.0 9.0 0.00 0.00 0.00 58 1017.4
20260831140022 86 213 3.0 8.0 0.00 0.00 0.00 59 1017.4